Regional Weather Roundup
Issued by NWS

Home | Current Version | Previous Version | Graphics & Text | Print | Product List | Glossary On
Versions: 1 2 3 4 5 6 7 8 9 10 11 12 13 14 15 16 17 18 19 20 21 22 23 24 25 26 27
000
ASUS45 KCYS 210910
RWRWY

WYOMING REGIONAL WEATHER ROUNDUP
NATIONAL WEATHER SERVICE CHEYENNE WY
200 AM MST WED FEB 21 2018

NOTE:  "FAIR" INDICATES FEW OR NO CLOUDS BELOW 12,000 FEET
WITH NO SIGNIFICANT WEATHER AND/OR OBSTRUCTIONS TO VISIBILITY.

WYZ001-211000-
YELLOWSTONE NATIONAL PARK

CITY           SKY/WX    TMP DP  RH WIND       PRES   REMARKS
LK YELLOWSTONE   N/A    -21 -27  73 NW3       29.96S
W YELLOWSTONE  NOT AVBL

$$
WYZ002>013-054>058-071-098>099-211000-
NORTHERN WYOMING

CITY           SKY/WX    TMP DP  RH WIND       PRES   REMARKS
JACKSON        LGT SNOW   4   0  83 SW10      30.05S FOG     WCI -11
CODY           FAIR     -11 -16  78 CALM      30.07S
GREYBULL       FAIR     -21 -24  86 SE3       30.22R
WORLAND        FAIR     -23 -26  86 CALM      30.19R
SHERIDAN       FAIR      -7 -15  68 SE5       30.16S WCI -18
BUFFALO        FAIR      -3 -13  62 S3        30.09S
GILLETTE       FAIR      -6 -16  61 S12       30.15F WCI -25
HULETT         FAIR      -8 -15  71 MISG      30.18S
NEWCASTLE      FAIR     -15 -22  70 CALM      30.23S

$$
WYZ014>020-022>026-101>103-211000-
CENTRAL WYOMING

CITY           SKY/WX    TMP DP  RH WIND       PRES   REMARKS
BIG PINEY      FAIR     -21 -25  81 E5        30.06F WCI -34
PINEDALE       CLOUDY   -17 -22  76 N6        30.06F WCI -31
DUBOIS           N/A    N/A N/A N/A MISG        N/A
LANDER         FAIR      -9 -12  87 VRB3      30.08S
RIVERTON       FAIR     -10 -17  71 SW8       30.09F WCI -26
CASPER         FAIR      -2  -8  76 W13       30.11R WCI -20
DOUGLAS        FAIR     -22 -26  82 CALM      30.16S

$$
WYZ021-027>030-104>119-211000-
SOUTHERN WYOMING

CITY           SKY/WX    TMP DP  RH WIND       PRES   REMARKS
EVANSTON       FAIR       1  -5  75 S7        30.02S WCI -12
ROCK SPRINGS   FAIR       3  -6  66 CALM      30.07S
DIXON          FAIR      -6 -12  75 E9        30.13R WCI -22
RAWLINS        FAIR      -5  -9  83 SW3       30.06F
SARATOGA       FAIR      -9 -15  77 MISG      30.07S
LARAMIE        FAIR      -1 -10  65 S7        30.03F WCI -14
CHEYENNE       FAIR       3  -1  83 SW7       30.10F WCI  -9
TORRINGTON     FAIR      -4  -8  83 CALM      30.23S
PINE BLUFFS    FAIR     -11 -15  84 MISG      30.20S

$$




USA.gov is the U.S. government's official web portal to all federal, state and local government web resources and services.